AFR1259 EFHK-LHBP

Flight info

Callsign AFR1259
Flight time 1h 52m
Altitude 34000
Route KOIVU Y123 LARTI DCT NAVOT DCT LUTAL P870 BERIL DCT SUWGI DCT LOGDA DCT POBOK M985 NAXAR DCT SUPAK DCT EDEMU
Aircraft B77L/H-SDE1E2E3FGHIJ2J3J4J5M1RWXY/LB1D1

Departure

Time 2026-04-21 09:38
Airport Helsinki Vantaa Airport (EFHK)

Arrival

Time 2026-04-21 11:30
Airport Budapest Liszt Ferenc International Airport (LHBP)
Time Latitude Longitude Altitude Speed Heading
2026-04-21 09:15 60.31192 24.97561 167 ft 0 kts 243°
2026-04-21 09:31 60.31196 24.97576 167 ft 3 kts 243°
2026-04-21 09:32 60.31203 24.97605 196 ft 3 kts 237°
2026-04-21 09:32 60.31214 24.97632 185 ft 3 kts 210°
2026-04-21 09:32 60.31229 24.97645 169 ft 3 kts 184°
2026-04-21 09:32 60.31248 24.97643 169 ft 3 kts 166°
2026-04-21 09:33 60.31267 24.97632 169 ft 3 kts 156°
2026-04-21 09:33 60.31280 24.97620 169 ft 1 kts 152°
2026-04-21 09:33 60.31283 24.97617 170 ft 1 kts 152°
2026-04-21 09:35 60.31258 24.97643 169 ft 12 kts 153°
2026-04-21 09:36 60.31148 24.97787 166 ft 21 kts 117°
2026-04-21 09:36 60.31068 24.97958 165 ft 14 kts 143°
2026-04-21 09:36 60.31032 24.98144 163 ft 15 kts 138°
2026-04-21 09:36 60.30978 24.98313 161 ft 16 kts 83°
2026-04-21 09:37 60.31044 24.98474 160 ft 16 kts
2026-04-21 09:37 60.31077 24.98452 161 ft 0 kts 330°
2026-04-21 09:37 60.31215 24.98307 163 ft 59 kts 333°
2026-04-21 09:37 60.31869 24.97640 157 ft 146 kts 333°
2026-04-21 09:38 60.32864 24.96567 474 ft 167 kts 332°
2026-04-21 09:38 60.33858 24.95387 1102 ft 170 kts 325°
2026-04-21 09:38 60.34682 24.93631 1753 ft 175 kts 303°
2026-04-21 09:38 60.35187 24.91349 2232 ft 185 kts 291°
2026-04-21 09:39 60.35409 24.88643 2572 ft 208 kts 272°
2026-04-21 09:39 60.35154 24.85542 2824 ft 242 kts 252°
2026-04-21 09:39 60.34364 24.82372 3283 ft 259 kts 242°
2026-04-21 09:39 60.33427 24.79230 4105 ft 265 kts 241°
2026-04-21 09:40 60.32478 24.75976 4885 ft 272 kts 242°
2026-04-21 09:40 60.31534 24.72642 5663 ft 275 kts 243°
2026-04-21 09:40 60.30570 24.69292 6449 ft 277 kts 238°
2026-04-21 09:40 60.29148 24.66572 7000 ft 289 kts 212°
2026-04-21 09:41 60.27277 24.65055 7687 ft 293 kts 193°
2026-04-21 09:41 60.25259 24.64261 8387 ft 297 kts 189°
2026-04-21 09:41 60.23234 24.63561 9038 ft 303 kts 189°
2026-04-21 09:41 60.21137 24.62804 9751 ft 307 kts 190°
2026-04-21 09:42 60.19019 24.62027 10462 ft 311 kts 190°
2026-04-21 09:42 60.16837 24.61217 10816 ft 330 kts 190°
2026-04-21 09:42 60.14498 24.60337 11012 ft 354 kts 190°
2026-04-21 09:42 60.11993 24.59386 11215 ft 378 kts 190°
2026-04-21 09:43 60.09354 24.58373 11666 ft 393 kts 191°
2026-04-21 09:43 60.06633 24.57605 12215 ft 399 kts 179°
2026-04-21 09:43 60.03884 24.58393 12851 ft 402 kts 165°
2026-04-21 09:43 60.01131 24.59670 13591 ft 409 kts 165°
2026-04-21 09:44 59.98336 24.60908 14428 ft 414 kts 166°
2026-04-21 09:44 59.95505 24.62101 15224 ft 417 kts 166°
2026-04-21 09:44 59.92683 24.63249 16003 ft 421 kts 166°
2026-04-21 09:44 59.89788 24.64409 16765 ft 426 kts 166°
2026-04-21 09:45 59.86864 24.65575 17493 ft 431 kts 166°
2026-04-21 09:45 59.83879 24.66281 18077 ft 440 kts 180°
2026-04-21 09:45 59.80847 24.65228 18640 ft 445 kts 194°
2026-04-21 09:45 59.77843 24.63601 19227 ft 450 kts 194°
2026-04-21 09:46 59.74810 24.62016 19932 ft 452 kts 193°
2026-04-21 09:46 59.71751 24.60515 20627 ft 454 kts 193°
2026-04-21 09:46 59.68667 24.59066 21276 ft 458 kts 192°
2026-04-21 09:46 59.65550 24.57606 21893 ft 462 kts 193°
2026-04-21 09:47 59.62423 24.56028 22519 ft 466 kts 194°
2026-04-21 09:47 59.59275 24.54370 23144 ft 470 kts 194°
2026-04-21 09:47 59.56099 24.52684 23768 ft 474 kts 194°
2026-04-21 09:47 59.52903 24.50997 24290 ft 477 kts 194°
2026-04-21 09:48 59.49679 24.49314 24788 ft 481 kts 194°
2026-04-21 09:48 59.46430 24.47632 25279 ft 485 kts 193°
2026-04-21 09:48 59.43147 24.45942 25769 ft 488 kts 193°
2026-04-21 09:48 59.39843 24.44243 26263 ft 492 kts 193°
2026-04-21 09:49 59.36557 24.42557 26746 ft 495 kts 193°
2026-04-21 09:49 59.33202 24.40930 27210 ft 498 kts 190°
2026-04-21 09:49 59.29785 24.39665 27657 ft 502 kts 188°
2026-04-21 09:49 59.26332 24.38451 28108 ft 505 kts 188°
2026-04-21 09:50 59.22858 24.37244 28573 ft 509 kts 188°
2026-04-21 09:50 59.21682 24.36834 28715 ft 510 kts 188°
2026-04-21 09:50 59.12295 24.33534 29921 ft 516 kts 188°
2026-04-21 09:51 59.08769 24.32282 30508 ft 514 kts 188°
2026-04-21 09:51 59.05254 24.31031 31026 ft 513 kts 188°
2026-04-21 09:51 59.01785 24.29799 31494 ft 513 kts 188°
2026-04-21 09:51 58.98271 24.28554 31922 ft 513 kts 188°
2026-04-21 09:52 58.94759 24.27313 32357 ft 513 kts 188°
2026-04-21 09:52 58.91245 24.26076 32785 ft 512 kts 188°
2026-04-21 09:52 58.87739 24.24843 33218 ft 512 kts 188°
2026-04-21 09:52 58.84236 24.23615 33626 ft 512 kts 188°
2026-04-21 09:53 58.80720 24.22385 34030 ft 512 kts 188°
2026-04-21 09:53 58.77208 24.21159 34210 ft 515 kts 188°
2026-04-21 09:53 58.70095 24.18688 34254 ft 523 kts 188°
2026-04-21 09:54 58.62932 24.16204 34246 ft 526 kts 188°
2026-04-21 09:54 58.55735 24.13716 34246 ft 523 kts 188°
2026-04-21 09:55 58.48562 24.11249 34243 ft 523 kts 188°
2026-04-21 09:55 58.41398 24.08797 34243 ft 524 kts 187°
2026-04-21 09:56 58.34219 24.06350 34231 ft 524 kts 187°
2026-04-21 09:56 58.27033 24.03910 34239 ft 524 kts 187°
2026-04-21 09:57 58.19899 24.01498 34249 ft 524 kts 187°
2026-04-21 09:57 58.12722 23.99081 34260 ft 524 kts 187°
2026-04-21 09:58 58.05548 23.96674 34263 ft 523 kts 187°
2026-04-21 09:58 57.98362 23.94273 34267 ft 524 kts 187°
2026-04-21 09:59 57.91184 23.91884 34262 ft 524 kts 187°
2026-04-21 09:59 57.84039 23.89515 34262 ft 523 kts 187°
2026-04-21 10:00 57.76872 23.87144 34264 ft 523 kts 187°
2026-04-21 10:00 57.69703 23.84783 34261 ft 523 kts 187°
2026-04-21 10:01 57.62534 23.82441 34264 ft 523 kts 187°
2026-04-21 10:01 57.55357 23.80108 34282 ft 523 kts 187°
2026-04-21 10:02 57.44643 23.76634 34269 ft 522 kts 187°
2026-04-21 10:03 57.37483 23.74327 34272 ft 522 kts 187°
2026-04-21 10:03 57.30325 23.72029 34262 ft 521 kts 187°
2026-04-21 10:04 57.23176 23.69741 34259 ft 521 kts 187°
2026-04-21 10:04 57.16034 23.67465 34256 ft 520 kts 187°
2026-04-21 10:05 57.08903 23.65200 34261 ft 520 kts 187°
2026-04-21 10:05 57.01819 23.62960 34248 ft 519 kts 187°
2026-04-21 10:06 56.94696 23.60716 34258 ft 519 kts 187°
2026-04-21 10:06 56.87587 23.58485 34253 ft 518 kts 187°
2026-04-21 10:07 56.80479 23.56262 34251 ft 518 kts 187°
2026-04-21 10:07 56.73368 23.54047 34244 ft 517 kts 187°
2026-04-21 10:08 56.66306 23.51857 34250 ft 517 kts 187°
2026-04-21 10:08 56.59170 23.49651 34245 ft 517 kts 187°
2026-04-21 10:09 56.52079 23.47468 34249 ft 517 kts 187°
2026-04-21 10:09 56.45029 23.45305 34233 ft 517 kts 187°
2026-04-21 10:10 56.37937 23.43136 34237 ft 516 kts 187°
2026-04-21 10:10 56.30836 23.41153 34231 ft 515 kts 185°
2026-04-21 10:11 56.23723 23.39495 34230 ft 515 kts 185°
2026-04-21 10:11 56.16603 23.37858 34234 ft 515 kts 185°
2026-04-21 10:12 56.09542 23.36187 34239 ft 514 kts 185°
2026-04-21 10:12 56.02439 23.34486 34235 ft 514 kts 186°
2026-04-21 10:13 55.95338 23.32787 34240 ft 514 kts 186°
2026-04-21 10:13 55.88244 23.31098 34242 ft 514 kts 186°
2026-04-21 10:14 55.81152 23.29420 34242 ft 514 kts 186°
2026-04-21 10:14 55.74119 23.27762 34237 ft 513 kts 186°
2026-04-21 10:15 55.67054 23.26102 34232 ft 512 kts 186°
2026-04-21 10:15 55.59987 23.24447 34222 ft 512 kts 186°
2026-04-21 10:16 55.52910 23.22796 34223 ft 512 kts 186°
2026-04-21 10:16 55.47039 23.21431 34205 ft 511 kts 186°
2026-04-21 10:17 55.39984 23.19796 34214 ft 510 kts 186°
2026-04-21 10:17 55.32934 23.18168 34210 ft 510 kts 186°
2026-04-21 10:18 55.25888 23.16546 34218 ft 510 kts 186°
2026-04-21 10:18 55.18892 23.14943 34213 ft 510 kts 186°
2026-04-21 10:19 55.11865 23.13337 34209 ft 509 kts 186°
2026-04-21 10:19 55.04838 23.11737 34205 ft 509 kts 185°
2026-04-21 10:20 54.97819 23.10145 34203 ft 509 kts 185°
2026-04-21 10:20 54.90795 23.08557 34204 ft 508 kts 185°
2026-04-21 10:21 54.83776 23.06976 34202 ft 508 kts 185°
2026-04-21 10:21 54.76761 23.05401 34198 ft 508 kts 185°
2026-04-21 10:22 54.69781 23.03840 34204 ft 508 kts 185°
2026-04-21 10:22 54.62762 23.02275 34200 ft 508 kts 185°
2026-04-21 10:23 54.55753 23.00718 34202 ft 508 kts 185°
2026-04-21 10:23 54.48728 22.99163 34194 ft 507 kts 185°
2026-04-21 10:24 54.41760 22.97625 34193 ft 508 kts 185°
2026-04-21 10:24 54.34750 22.96085 34194 ft 507 kts 185°
2026-04-21 10:25 54.27746 22.94550 34190 ft 507 kts 185°
2026-04-21 10:25 54.20746 22.93021 34186 ft 507 kts 185°
2026-04-21 10:26 54.13744 22.91497 34183 ft 506 kts 185°
2026-04-21 10:26 54.06830 22.89059 34181 ft 508 kts 196°
2026-04-21 10:27 54.00298 22.84574 34173 ft 510 kts 206°
2026-04-21 10:27 53.93964 22.79125 34171 ft 510 kts 206°
2026-04-21 10:28 53.87634 22.73690 34175 ft 509 kts 206°
2026-04-21 10:28 53.81285 22.68321 34167 ft 508 kts 206°
2026-04-21 10:29 53.74986 22.63044 34171 ft 509 kts 205°
2026-04-21 10:29 53.68640 22.57748 34165 ft 509 kts 205°
2026-04-21 10:30 53.62288 22.52464 34165 ft 509 kts 205°
2026-04-21 10:30 53.55931 22.47193 34159 ft 509 kts 205°
2026-04-21 10:31 53.49576 22.41940 34158 ft 509 kts 205°
2026-04-21 10:31 53.43234 22.36713 34151 ft 507 kts 205°
2026-04-21 10:32 53.36885 22.31499 34160 ft 508 kts 205°
2026-04-21 10:32 53.30538 22.26305 34151 ft 507 kts 205°
2026-04-21 10:33 53.24197 22.21132 34152 ft 506 kts 205°
2026-04-21 10:33 53.17873 22.15990 34152 ft 505 kts 205°
2026-04-21 10:34 53.11599 22.10906 34153 ft 504 kts 205°
2026-04-21 10:34 53.05280 22.05802 34144 ft 504 kts 205°
2026-04-21 10:35 52.98977 22.00727 34148 ft 503 kts 205°
2026-04-21 10:35 52.92688 21.95682 34143 ft 502 kts 205°
2026-04-21 10:36 52.86399 21.90651 34147 ft 501 kts 205°
2026-04-21 10:36 52.80108 21.85636 34142 ft 501 kts 205°
2026-04-21 10:37 52.73828 21.80643 34148 ft 501 kts 205°
2026-04-21 10:37 52.67583 21.75696 34139 ft 501 kts 205°
2026-04-21 10:38 52.61286 21.70723 34146 ft 502 kts 205°
2026-04-21 10:38 52.54972 21.65754 34133 ft 504 kts 205°
2026-04-21 10:39 52.48637 21.60785 34138 ft 504 kts 205°
2026-04-21 10:39 52.42324 21.55848 34138 ft 500 kts 205°
2026-04-21 10:40 52.36089 21.50986 34131 ft 498 kts 205°
2026-04-21 10:40 52.29827 21.46119 34146 ft 498 kts 205°
2026-04-21 10:41 52.23557 21.41262 34142 ft 499 kts 205°
2026-04-21 10:41 52.17272 21.36409 34147 ft 500 kts 205°
2026-04-21 10:42 52.10974 21.31561 34148 ft 502 kts 206°
2026-04-21 10:42 52.04640 21.26699 34147 ft 502 kts 206°
2026-04-21 10:43 51.98328 21.21869 34140 ft 500 kts 206°
2026-04-21 10:43 51.92050 21.17083 34136 ft 497 kts 206°
2026-04-21 10:44 51.85857 21.12376 34134 ft 492 kts 206°
2026-04-21 10:44 51.79672 21.07685 34138 ft 490 kts 206°
2026-04-21 10:45 51.73479 21.03006 34131 ft 492 kts 206°
2026-04-21 10:45 51.67254 20.98314 34137 ft 494 kts 206°
2026-04-21 10:46 51.61037 20.93643 34122 ft 490 kts 206°
2026-04-21 10:46 51.54887 20.89041 34124 ft 485 kts 206°
2026-04-21 10:47 51.48782 20.84484 34121 ft 484 kts 206°
2026-04-21 10:47 51.42705 20.79959 34129 ft 486 kts 206°
2026-04-21 10:48 51.36554 20.75390 34125 ft 487 kts 206°
2026-04-21 10:48 51.30398 20.70834 34122 ft 486 kts 206°
2026-04-21 10:49 51.24237 20.66401 34122 ft 486 kts 205°
2026-04-21 10:49 51.18019 20.62179 34121 ft 486 kts 204°
2026-04-21 10:50 51.11798 20.57972 34123 ft 486 kts 204°
2026-04-21 10:50 51.05584 20.53748 34120 ft 486 kts 204°
2026-04-21 10:51 50.99375 20.49523 34119 ft 485 kts 204°
2026-04-21 10:51 50.93183 20.45321 34114 ft 484 kts 205°
2026-04-21 10:52 50.86992 20.41134 34113 ft 483 kts 205°
2026-04-21 10:52 50.80850 20.36993 34112 ft 483 kts 205°
2026-04-21 10:53 50.74672 20.32839 34108 ft 482 kts 205°
2026-04-21 10:53 50.68499 20.28701 34109 ft 480 kts 205°
2026-04-21 10:54 50.62331 20.24575 34105 ft 480 kts 205°
2026-04-21 10:54 50.56168 20.20714 34105 ft 481 kts 200°
2026-04-21 10:55 50.49787 20.17546 34111 ft 481 kts 199°
2026-04-21 10:55 50.43404 20.14412 34103 ft 480 kts 199°
2026-04-21 10:56 50.37034 20.11251 34099 ft 479 kts 199°
2026-04-21 10:56 50.30681 20.08087 34108 ft 478 kts 199°
2026-04-21 10:57 50.24337 20.04935 34108 ft 478 kts 199°
2026-04-21 10:57 50.18005 20.01801 34130 ft 477 kts 199°
2026-04-21 10:58 50.11708 19.98692 34127 ft 477 kts 199°
2026-04-21 10:58 50.05367 19.95570 34132 ft 477 kts 199°
2026-04-21 10:59 49.99039 19.92460 34124 ft 477 kts 199°
2026-04-21 10:59 49.92720 19.89361 34113 ft 476 kts 199°
2026-04-21 11:00 49.86406 19.86282 34110 ft 476 kts 199°
2026-04-21 11:00 49.80092 19.83216 34101 ft 475 kts 199°
2026-04-21 11:01 49.73590 19.81235 34087 ft 478 kts 188°
2026-04-21 11:01 49.68046 19.80902 34084 ft 480 kts 183°
2026-04-21 11:02 49.58002 19.80736 34071 ft 481 kts 183°
2026-04-21 11:02 49.51316 19.80565 34073 ft 480 kts 184°
2026-04-21 11:03 49.44626 19.80373 34062 ft 481 kts 184°
2026-04-21 11:03 49.37934 19.80183 34061 ft 481 kts 184°
2026-04-21 11:04 49.31238 19.79997 34059 ft 481 kts 184°
2026-04-21 11:04 49.24533 19.79938 34042 ft 482 kts 182°
2026-04-21 11:05 49.21216 19.79979 34036 ft 469 kts 182°
2026-04-21 11:05 49.18012 19.80031 34019 ft 453 kts 182°
2026-04-21 11:05 49.14905 19.80079 34026 ft 439 kts 182°
2026-04-21 11:05 49.11862 19.80116 33604 ft 437 kts 182°
2026-04-21 11:06 49.08866 19.80143 33203 ft 432 kts 182°
2026-04-21 11:06 49.05871 19.80166 32781 ft 427 kts 182°
2026-04-21 11:06 49.02914 19.80188 32368 ft 423 kts 182°
2026-04-21 11:06 48.99997 19.80208 31949 ft 418 kts 182°
2026-04-21 11:07 48.97096 19.80229 31551 ft 414 kts 182°
2026-04-21 11:07 48.94203 19.80247 31082 ft 423 kts 182°
2026-04-21 11:07 48.91171 19.80260 30663 ft 447 kts 182°
2026-04-21 11:07 48.87978 19.80274 30219 ft 470 kts 182°
2026-04-21 11:08 48.84625 19.80292 29632 ft 492 kts 182°
2026-04-21 11:08 48.81143 19.80317 29238 ft 507 kts 182°
2026-04-21 11:08 48.77561 19.80346 28783 ft 521 kts 182°
2026-04-21 11:08 48.73946 19.80380 28770 ft 512 kts 182°
2026-04-21 11:09 48.70448 19.80419 28625 ft 493 kts 182°
2026-04-21 11:09 48.67060 19.80453 28197 ft 479 kts 182°
2026-04-21 11:09 48.63791 19.80482 28095 ft 461 kts 182°
2026-04-21 11:09 48.60641 19.80508 27982 ft 445 kts 182°
2026-04-21 11:10 48.57599 19.80530 27885 ft 430 kts 183°
2026-04-21 11:10 48.54689 19.80551 27792 ft 416 kts 183°
2026-04-21 11:10 48.51800 19.80572 27666 ft 404 kts 183°
2026-04-21 11:10 48.49032 19.80591 27508 ft 393 kts 183°
2026-04-21 11:11 48.46333 19.80609 27209 ft 382 kts 183°
2026-04-21 11:11 48.43729 19.80626 26497 ft 377 kts 183°
2026-04-21 11:11 48.41104 19.80642 25646 ft 377 kts 183°
2026-04-21 11:11 48.38479 19.80657 24863 ft 375 kts 183°
2026-04-21 11:12 48.35882 19.80674 24163 ft 372 kts 183°
2026-04-21 11:12 48.33308 19.80692 23476 ft 368 kts 183°
2026-04-21 11:12 48.30759 19.80711 22693 ft 364 kts 183°
2026-04-21 11:12 48.28237 19.80730 21941 ft 361 kts 183°
2026-04-21 11:13 48.25736 19.80747 21217 ft 357 kts 183°
2026-04-21 11:13 48.23261 19.80765 20524 ft 355 kts 183°
2026-04-21 11:13 48.20807 19.80783 20162 ft 351 kts 183°
2026-04-21 11:13 48.18346 19.80790 19786 ft 365 kts 185°
2026-04-21 11:14 48.15687 19.80483 19405 ft 402 kts 191°
2026-04-21 11:14 48.12783 19.79813 18996 ft 438 kts 192°
2026-04-21 11:14 48.09810 19.79083 18704 ft 427 kts 192°
2026-04-21 11:14 48.06843 19.78354 18581 ft 435 kts 192°
2026-04-21 11:15 48.03844 19.77628 17861 ft 438 kts 192°
2026-04-21 11:15 48.00887 19.76929 17203 ft 426 kts 192°
2026-04-21 11:15 47.98029 19.76267 16503 ft 407 kts 192°
2026-04-21 11:15 47.95236 19.75619 15558 ft 396 kts 192°
2026-04-21 11:16 47.92613 19.75009 15173 ft 375 kts 192°
2026-04-21 11:16 47.90119 19.74429 14970 ft 351 kts 192°
2026-04-21 11:16 47.87764 19.73884 14658 ft 334 kts 192°
2026-04-21 11:16 47.85504 19.73358 14152 ft 324 kts 194°
2026-04-21 11:17 47.83382 19.72426 13441 ft 314 kts 210°
2026-04-21 11:17 47.81559 19.70721 12642 ft 307 kts 224°
2026-04-21 11:17 47.79989 19.68589 11895 ft 305 kts 227°
2026-04-21 11:17 47.78451 19.66424 11178 ft 303 kts 227°
2026-04-21 11:18 47.76918 19.64273 10447 ft 302 kts 227°
2026-04-21 11:18 47.75387 19.62143 9728 ft 301 kts 227°
2026-04-21 11:18 47.73887 19.60074 9216 ft 292 kts 226°
2026-04-21 11:18 47.72424 19.58068 8760 ft 281 kts 227°
2026-04-21 11:19 47.71011 19.56135 8304 ft 273 kts 226°
2026-04-21 11:19 47.69629 19.54243 7820 ft 268 kts 226°
2026-04-21 11:19 47.68254 19.52360 7295 ft 268 kts 226°
2026-04-21 11:19 47.66898 19.50509 6977 ft 260 kts 227°
2026-04-21 11:20 47.65553 19.48676 6637 ft 264 kts 227°
2026-04-21 11:20 47.64220 19.46860 6443 ft 264 kts 226°
2026-04-21 11:20 47.62869 19.45022 6207 ft 264 kts 226°
2026-04-21 11:20 47.61492 19.43146 6097 ft 275 kts 226°
2026-04-21 11:21 47.59999 19.41104 6138 ft 311 kts 226°
2026-04-21 11:21 47.58307 19.38796 6199 ft 351 kts 225°
2026-04-21 11:21 47.56487 19.36462 6045 ft 334 kts 217°
2026-04-21 11:21 47.54429 19.35200 5739 ft 309 kts 191°
2026-04-21 11:22 47.52362 19.35200 5431 ft 290 kts 171°
2026-04-21 11:22 47.50429 19.36023 5066 ft 289 kts 159°
2026-04-21 11:22 47.48655 19.37353 4834 ft 283 kts 143°
2026-04-21 11:22 47.47240 19.39315 4511 ft 277 kts 131°
2026-04-21 11:23 47.45980 19.41426 4189 ft 276 kts 130°
2026-04-21 11:23 47.44719 19.43537 4103 ft 273 kts 130°
2026-04-21 11:23 47.43465 19.45625 4038 ft 272 kts 131°
2026-04-21 11:23 47.42183 19.47722 4004 ft 278 kts 131°
2026-04-21 11:24 47.40876 19.49841 3978 ft 281 kts 131°
2026-04-21 11:24 47.39557 19.51961 3984 ft 274 kts 130°
2026-04-21 11:24 47.38326 19.53922 3933 ft 246 kts 130°
2026-04-21 11:24 47.37198 19.55641 3931 ft 223 kts 141°
2026-04-21 11:25 47.35766 19.56480 3972 ft 227 kts 177°
2026-04-21 11:25 47.34190 19.56067 3838 ft 238 kts 206°
2026-04-21 11:25 47.32850 19.54686 3685 ft 234 kts 221°
2026-04-21 11:25 47.31647 19.53065 3513 ft 236 kts 224°
2026-04-21 11:26 47.30720 19.51120 3306 ft 233 kts 253°
2026-04-21 11:26 47.30649 19.48791 3157 ft 227 kts 288°
2026-04-21 11:26 47.31416 19.46856 3028 ft 216 kts 314°
2026-04-21 11:26 47.32427 19.45264 2864 ft 208 kts 315°
2026-04-21 11:27 47.33386 19.43738 2669 ft 197 kts 315°
2026-04-21 11:27 47.34279 19.42300 2579 ft 183 kts 315°
2026-04-21 11:27 47.35121 19.40945 2538 ft 177 kts 315°
2026-04-21 11:27 47.35946 19.39626 2309 ft 177 kts 315°
2026-04-21 11:28 47.36767 19.38295 2071 ft 174 kts 315°
2026-04-21 11:28 47.37585 19.36982 1856 ft 174 kts 315°
2026-04-21 11:28 47.38388 19.35680 1633 ft 168 kts 315°
2026-04-21 11:28 47.39149 19.34442 1348 ft 156 kts 315°
2026-04-21 11:29 47.39877 19.33269 1165 ft 153 kts 314°
2026-04-21 11:29 47.40592 19.32120 988 ft 152 kts 313°
2026-04-21 11:29 47.41299 19.30984 751 ft 147 kts 314°
2026-04-21 11:29 47.41987 19.29874 571 ft 145 kts 313°
2026-04-21 11:30 47.42649 19.28810 451 ft 132 kts 311°
2026-04-21 11:30 47.43148 19.28010 466 ft 79 kts 313°
2026-04-21 11:30 47.43332 19.27627 467 ft 17 kts 290°
2026-04-21 11:30 47.43363 19.27459 467 ft 17 kts 283°
2026-04-21 11:31 47.43388 19.27286 465 ft 17 kts 283°
2026-04-21 11:31 47.43412 19.27131 463 ft 9 kts 281°
2026-04-21 11:31 47.43412 19.27044 463 ft 9 kts 231°
2026-04-21 11:31 47.43364 19.27078 461 ft 9 kts 125°
2026-04-21 11:32 47.43326 19.27157 462 ft 11 kts 126°
2026-04-21 11:32 47.43251 19.27284 462 ft 21 kts 132°
2026-04-21 11:32 47.43140 19.27463 462 ft 25 kts 131°
2026-04-21 11:32 47.43060 19.27594 462 ft 16 kts 133°
2026-04-21 11:33 47.42983 19.27717 462 ft 16 kts 133°
2026-04-21 11:33 47.42906 19.27840 462 ft 16 kts 131°
2026-04-21 11:33 47.42863 19.27896 462 ft 8 kts 159°
2026-04-21 11:33 47.42812 19.27871 462 ft 8 kts 218°
2026-04-21 11:34 47.42788 19.27803 462 ft 8 kts 286°
2026-04-21 11:34 47.42822 19.27751 462 ft 5 kts 313°
2026-04-21 11:34 47.42833 19.27732 462 ft 0 kts 312°